Tracking 25710 objects as of 7-Jul-2022
HD Live streaming from Space Station
objects crossing your sky now

FENGYUN 1C DEB

Track FENGYUN 1C DEB now!
10-day predictions


NORAD ID: 29835
Int'l Code: 1999-025ED
Perigee: 637.3 km
Apogee: 882.6 km
Inclination: 99.1 °
Period: 99.9 minutes
Semi major axis: 7130 km
RCS: 0.043 m2 (small)
Launch date: May 10, 1999
Source: People's Republic of China (PRC)
Launch site: Taiyaun Space Center, China (TSC)

Note: This is SATELLITE DEBRIS
aabbcc
Your satellite tracking list
Your tracking list is empty




NASA's NSSDC Master Catalog

Two Line Element Set (TLE):
1 29835U 99025ED  22187.58441061  .00000127  00000-0  47115-4 0  9993
2 29835  99.0696 228.5967 0171991 155.1172 357.9982 14.41712197814000
Source of the keplerian elements: AFSPC